Weather History for Montpelier, VT

Change the Weather History Date:

Wednesday, August 22, 2012

  Actual Average Record
Temperature  
Mean Temperature 62 °F 65 °F  
Max Temperature 77 °F 76 °F 91 °F (1955)
Min Temperature 47 °F 53 °F 39 °F (1950)
Degree Days  
Heating Degree Days 4 2  
Month to date heating degree days 40  
Since 1 June heating degree days 201  
Since 1 July heating degree days 80  
Cooling Degree Days 0 2  
Month to date cooling degree days 82 60  
Year to date cooling degree days 255 228  
Since 1 June cooling degree days 239 218  
Growing Degree Days 10 (Base 50)    
Moisture  
Dew Point 50 °F    
Average Humidity 67    
Maximum Humidity 100    
Minimum Humidity 33    
Precipitation  
Precipitation 0.00 in 0.11 in 1.13 in (1960)
Month to date precipitation 2.49 3.08  
Year to date precipitation 19.89 23.87  
Sea Level Pressure  
Sea Level Pressure 30.17 in    
Wind  
Wind Speed 2 mph (SW)    
Max Wind Speed 9 mph    
Max Gust Speed 18 mph    
Visibility 6 miles    
Events Fog    
T = Trace of Precipitation, MM = Missing Value Source: NWS Daily Summary

Daily Weather History Graph

Daily Weather History Graph

Search for Another Location

Airport:

Trip Planner

Search our weather history database for the weather conditions in past years. The results will help you decide how hot, cold, wet, or windy it might be!

Date:

Astronomy

Aug. 22, 2012 Rise Set
Actual Time 6:02 AM EDT 7:42 PM EDT
Civil Twilight 5:31 AM EDT 8:13 PM EDT
Nautical Twilight 4:54 AM EDT 8:50 PM EDT
Astronomical Twilight 4:14 AM EDT 9:30 PM EDT
Moon 11:53 AM EDT (8/22) 10:05 PM EDT (8/22)
Length of Visible Light 14h 41m
Length of Day
13h 40m
Waxing Crescent, 29% of the Moon is Illuminated
Aug 22
Waxing Crescent
Aug 24
First Quarter
Aug 31
Full
Sep 8
Last Quarter
Sep 15
New

Hourly Weather History & Observations

Time (EDT) Temp. Dew Point Humidity Pressure Visibility Wind Dir Wind Speed Gust Speed Precip Events Conditions
12:51 AM 51.1 °F 50.0 °F 96% 30.15 in 10.0 mi Calm Calm - N/A   Clear
1:51 AM 50.0 °F 48.9 °F 96% 30.15 in 10.0 mi Calm Calm - N/A   Clear
2:51 AM 48.9 °F 48.0 °F 97% 30.16 in 10.0 mi SSW 4.6 mph - N/A   Clear
3:03 AM 48.2 °F 48.2 °F 100% 30.16 in 7.0 mi Calm Calm - N/A   Partly Cloudy
3:51 AM 50.0 °F 48.9 °F 96% 30.17 in 10.0 mi Calm Calm - N/A   Clear
4:19 AM 48.2 °F 48.2 °F 100% 30.17 in 2.5 mi Calm Calm - N/A   Partly Cloudy
4:23 AM 48.2 °F 48.2 °F 100% 30.17 in 1.2 mi Calm Calm - N/A   Scattered Clouds
4:28 AM 48.2 °F 46.4 °F 93% 30.17 in 2.0 mi Calm Calm - N/A   Scattered Clouds
4:36 AM 48.2 °F 46.4 °F 93% 30.17 in 6.0 mi Calm Calm - N/A   Partly Cloudy
4:47 AM 46.4 °F 46.4 °F 100% 30.17 in 2.0 mi Calm Calm - N/A   Partly Cloudy
4:51 AM 46.9 °F 46.0 °F 97% 30.18 in 1.5 mi Calm Calm - N/A   Clear
4:54 AM 46.4 °F 46.4 °F 100% 30.17 in 1.0 mi Calm Calm - N/A   Clear
5:03 AM 46.4 °F 46.4 °F 100% 30.17 in 0.5 mi Calm Calm - N/A Fog Fog
5:10 AM 46.4 °F 46.4 °F 100% 30.17 in 1.5 mi Calm Calm - N/A   Partly Cloudy
5:12 AM 46.4 °F 46.4 °F 100% 30.17 in 3.0 mi Calm Calm - N/A   Scattered Clouds
5:41 AM 46.4 °F 46.4 °F 100% 30.17 in 9.0 mi Calm Calm - N/A   Mostly Cloudy
5:49 AM 48.2 °F 46.4 °F 93% 30.17 in 1.8 mi Calm Calm - N/A   Mostly Cloudy
5:51 AM 48.0 °F 48.0 °F 100% 30.18 in 1.2 mi Calm Calm - N/A   Mostly Cloudy
5:54 AM 48.2 °F 48.2 °F 100% 30.17 in 0.8 mi Calm Calm - N/A   Mist
6:51 AM 46.9 °F 46.9 °F 100% 30.19 in 0.2 mi Calm Calm - N/A Fog Fog
7:04 AM 48.2 °F 48.2 °F 100% 30.19 in 2.0 mi Calm Calm - N/A   Mostly Cloudy
7:07 AM 48.2 °F 48.2 °F 100% 30.19 in 8.0 mi Calm Calm - N/A   Scattered Clouds
7:35 AM 50.0 °F 48.2 °F 94% 30.19 in 1.8 mi Calm Calm - N/A   Scattered Clouds
7:37 AM 48.2 °F 48.2 °F 100% 30.19 in 1.0 mi Calm Calm - N/A   Mist
7:44 AM 50.0 °F 50.0 °F 100% 30.19 in 0.2 mi North 3.5 mph - N/A Fog Fog
7:51 AM 50.0 °F 50.0 °F 100% 30.21 in 0.2 mi Calm Calm - N/A Fog Fog
8:45 AM 53.6 °F 53.6 °F 100% 30.20 in 1.2 mi Calm Calm - N/A   Mostly Cloudy
8:47 AM 53.6 °F 53.6 °F 100% 30.20 in 3.0 mi Calm Calm - N/A   Mostly Cloudy
8:51 AM 53.1 °F 53.1 °F 100% 30.21 in 8.0 mi Calm Calm - N/A   Mostly Cloudy
8:58 AM 53.6 °F 53.6 °F 100% 30.19 in 10.0 mi Calm Calm - N/A   Scattered Clouds
9:51 AM 62.6 °F 55.4 °F 77% 30.20 in 10.0 mi Calm Calm - N/A   Clear
10:51 AM 70.0 °F 55.0 °F 59% 30.19 in 10.0 mi ENE 3.5 mph - N/A   Clear
11:51 AM 73.9 °F 51.1 °F 45% 30.19 in 10.0 mi Calm Calm - N/A   Partly Cloudy
12:51 PM 73.0 °F 48.0 °F 41% 30.18 in 10.0 mi Calm Calm - N/A   Scattered Clouds
1:51 PM 73.9 °F 48.0 °F 40% 30.17 in 10.0 mi West 4.6 mph - N/A   Mostly Cloudy
2:51 PM 75.9 °F 45.0 °F 33% 30.16 in 10.0 mi Variable 4.6 mph - N/A   Scattered Clouds
3:51 PM 75.9 °F 48.0 °F 37% 30.14 in 10.0 mi SW 5.8 mph - N/A   Clear
4:51 PM 73.9 °F 48.0 °F 40% 30.14 in 10.0 mi Calm Calm - N/A   Mostly Cloudy
5:51 PM 75.2 °F 48.2 °F 38% 30.13 in 10.0 mi SW 4.6 mph - N/A   Clear
6:51 PM 69.8 °F 57.2 °F 64% 30.13 in 10.0 mi Calm Calm - N/A   Mostly Cloudy
7:51 PM 64.9 °F 55.9 °F 73% 30.14 in 10.0 mi SW 4.6 mph - N/A   Scattered Clouds
8:51 PM 61.0 °F 55.0 °F 81% 30.15 in 10.0 mi SW 3.5 mph - N/A   Clear
9:51 PM 60.1 °F 54.0 °F 80% 30.15 in 10.0 mi Calm Calm - N/A   Partly Cloudy
10:51 PM 57.2 °F 53.6 °F 88% 30.15 in 10.0 mi Calm Calm - N/A   Clear
11:51 PM 55.0 °F 53.1 °F 93% 30.15 in 10.0 mi Calm Calm - N/A   Clear